Temperature
18 18 19 19 18 16 16 15 15 16 15 17 17 17 19 20 21 20 20 20 20 19 19 18 18 17 17 17 16 16 16 16 16 15 15 15 14 14 14 13 13 13 13 12
18 19 18 18 18 17 16 16 15 16 16 17 18 19 19 20 20 20 21 20 20 19 19 18 18 17 17 17 17 17 16 16 16 16 16 15 15 15 14 14 14 13 13 13
16 17 18 17 18 17 17 16 16 17 18 18 17 16 19 21 21 21 21 21 20 20 19 19 18 18 18 17 17 17 17 17 16 16 16 16 15 15 15 14 14 14 13 13
15 18 18 18 18 18 18 17 16 17 17 17 18 21 23 23 23 22 22 21 21 20 20 19 19 18 18 18 17 17 17 17 17 17 16 16 16 15 15 15 14 14 14 13
14 16 16 17 18 18 18 18 17 17 18 18 19 19 20 22 23 23 22 22 21 20 20 19 19 18 18 18 18 17 17 17 17 17 17 16 16 16 15 15 15 14 14 14
13 16 17 18 19 19 18 18 19 17 17 17 17 17 19 23 23 22 22 21 21 20 20 19 19 18 18 18 18 18 17 17 17 17 16 16 16 16 15 15 15 14 14 14
13 15 15 17 18 19 19 19 21 20 19 18 17 21 23 23 23 22 21 21 20 20 20 19 19 18 18 18 18 17 17 17 17 16 16 16 16 15 15 15 14 14 14 14
12 14 16 18 18 18 19 21 21 21 21 20 22 22 23 23 23 22 21 20 20 20 19 19 18 18 18 18 17 17 17 17 16 16 16 15 15 15 14 14 14 14 14 14
14 16 17 18 19 21 20 20 21 22 22 22 22 22 22 23 22 22 21 20 20 19 19 19 18 18 18 17 17 17 17 16 16 16 15 15 14 14 13 13 13 13 13 13
13 14 16 19 20 21 21 21 21 22 22 22 22 22 22 22 22 21 21 20 20 19 19 18 18 18 17 17 17 17 16 16 15 15 14 14 13 13 12 12 12 12 12 12
13 14 16 20 20 20 20 21 21 21 22 22 22 22 22 22 22 21 21 20 19 19 19 18 18 17 17 17 16 16 16 15 15 14 13 13 12 11 11 11 11 11 11 11
14 16 15 17 19 19 19 20 20 21 21 22 22 22 22 22 22 21 20 20 19 18 18 18 17 17 17 16 16 15 15 15 14 13 12 11 10 10 9 9 9 9 10 10
15 15 15 16 17 17 18 18 19 19 20 21 22 22 22 22 22 21 20 20 19 18 18 17 17 16 16 16 15 15 14 14 13 12 11 10 10 9 9 9 8 9 9 9
13 14 14 14 15 16 16 17 18 19 20 21 21 21 21 21 21 21 20 20 19 18 17 16 16 16 15 15 14 14 13 13 12 11 10 10 9 9 8 8 8 8 8 8
11 11 11 12 13 15 15 16 17 18 19 20 20 21 21 21 21 21 20 19 18 17 16 16 15 15 14 14 13 13 12 11 11 10 9 9 8 8 8 8 7 7 7 7
9 10 11 11 12 13 14 14 15 17 18 19 19 20 20 21 21 20 19 18 17 17 16 15 15 14 14 13 12 12 11 10 10 9 8 8 8 7 7 7 7 7 7 6
7 8 9 9 10 11 12 13 13 15 17 18 19 19 19 19 19 19 18 17 17 16 15 15 14 13 13 12 11 11 10 9 9 8 8 7 7 7 7 6 6 6 6 6
7 7 8 8 8 9 11 12 13 14 16 17 18 18 17 18 18 18 17 16 15 14 14 13 13 12 11 11 10 10 9 9 8 8 7 7 6 6 6 6 6 5 5 5
7 7 8 8 8 9 10 11 13 14 15 16 16 17 17 17 18 17 16 15 14 13 12 12 11 11 10 10 9 9 8 8 7 7 7 6 6 6 6 5 5 5 5 5
7 7 7 8 9 9 10 11 12 13 14 15 15 15 15 15 16 16 15 14 14 14 13 11 10 10 9 9 8 8 8 7 7 7 6 6 6 5 5 5 5 4 4 4
7 7 7 7 8 9 10 11 11 12 13 14 14 15 15 15 14 14 14 12 12 12 11 10 10 9 9 8 8 7 7 7 6 6 6 6 5 5 5 5 4 4 4 4
6 6 6 7 7 8 9 10 11 11 12 12 13 13 13 13 13 12 13 13 12 11 10 9 9 8 8 8 7 7 7 6 6 6 5 5 5 5 4 4 4 4 4 3
6 6 6 6 7 7 8 9 10 10 11 11 11 11 12 12 12 12 11 11 10 10 9 9 8 8 7 7 7 6 6 6 5 5 5 5 5 4 4 4 4 3 3 3
6 6 6 6 6 7 7 8 9 9 9 10 10 10 11 11 10 11 11 10 10 9 8 8 7 7 7 6 6 6 6 5 5 5 5 4 4 4 4 3 3 3 3 2
6 6 6 6 6 6 7 7 8 8 8 8 9 9 9 10 10 10 10 9 9 8 7 7 7 6 6 6 6 5 5 5 5 5 4 4 4 4 3 3 3 2 2 2
6 6 6 6 6 6 6 6 7 7 7 7 8 8 8 8 9 9 9 8 8 7 7 6 6 6 6 5 5 5 5 5 4 4 4 4 3 3 3 2 2 2 2 1
6 6 6 6 6 6 6 6 6 6 6 7 7 7 7 8 8 8 8 7 7 6 6 6 6 6 5 5 5 5 5 4 4 4 3 3 3 2 2 2 2 1 1 1
Wind_Speed
8 7 4 6 7 8 9 10 10 10 11 14 11 11 10 8 8 7 7 8 9 9 9 8 8 8 7 7 6 6 6 6 7 6 5 5 5 5 4 4 4 4 4 4
5 5 5 6 9 9 10 8 9 9 11 13 9 6 7 9 9 10 10 11 11 10 9 9 9 9 8 8 7 6 7 8 6 5 5 6 6 5 5 5 5 4 5 5
5 5 3 7 11 11 9 9 11 13 15 9 7 10 12 12 12 13 12 11 11 11 11 11 10 9 9 8 6 6 7 7 6 5 6 6 6 5 6 6 5 5 6 5
3 1 8 10 6 8 10 11 12 12 11 10 13 11 9 10 13 13 12 11 11 10 10 9 8 7 7 5 6 6 6 6 5 5 6 5 5 6 6 5 5 6 7 6
4 4 8 10 8 7 8 10 11 15 14 8 5 2 4 8 11 12 11 10 10 9 8 7 8 7 7 6 5 5 5 5 5 5 5 5 6 6 5 4 6 6 6 6
5 4 6 10 7 3 4 7 9 11 13 8 10 5 9 8 10 10 8 7 7 7 7 7 7 8 8 6 5 5 5 4 3 3 4 5 5 5 3 4 5 5 6 6
6 6 9 10 4 5 3 8 6 5 8 11 13 11 7 9 9 9 8 7 8 9 8 7 8 9 8 7 5 4 3 2 1 1 2 3 2 2 2 3 3 4 5 5
6 5 9 5 5 6 8 6 6 5 7 12 11 5 6 10 10 10 9 8 9 9 7 6 8 9 8 6 4 3 4 3 2 2 1 1 0 1 1 2 2 4 4 5
9 9 6 3 7 8 6 7 8 6 7 9 9 8 8 9 10 10 10 9 8 10 9 6 6 8 9 6 5 6 6 4 3 3 3 3 3 2 2 2 2 3 3 4
6 9 9 8 7 7 6 8 9 8 7 8 10 10 10 10 10 10 9 10 9 11 10 7 6 6 7 7 7 8 7 5 4 4 4 5 4 3 3 3 3 3 4 4
7 10 11 9 7 8 9 9 9 7 5 8 9 9 11 11 12 11 10 9 10 11 11 9 8 7 7 7 8 8 7 6 5 5 5 4 4 4 4 4 3 3 3 3
9 9 7 13 13 11 12 13 11 8 7 6 9 11 12 12 12 12 12 11 11 11 11 10 9 8 7 7 9 10 7 6 4 4 4 4 4 5 8 7 11 12 11 7
9 11 9 12 13 12 11 13 12 10 10 10 9 10 12 10 11 12 13 13 14 14 13 12 10 9 7 8 9 9 8 7 5 5 4 4 4 4 4 6 9 11 13 14
7 8 9 10 12 14 13 14 12 11 10 10 9 8 10 9 10 14 15 15 14 14 13 12 11 9 8 8 9 9 8 8 7 5 5 4 4 4 3 3 4 4 7 12
10 10 10 13 14 14 13 12 12 12 11 9 7 9 12 14 16 16 14 14 15 14 13 13 12 10 8 9 10 10 8 6 6 5 5 4 4 4 3 3 3 2 3 6
14 12 10 11 13 15 14 13 12 14 13 10 9 11 13 14 13 13 15 18 19 18 16 14 13 10 10 10 10 8 7 12 9 6 5 4 4 4 3 2 2 2 2 3
12 13 14 16 17 17 16 14 14 14 13 12 12 10 10 12 13 14 15 15 15 15 15 14 13 11 11 11 10 8 7 8 11 7 5 4 4 3 3 2 1 1 1 2
10 12 12 14 15 18 18 17 15 14 13 12 8 9 14 17 19 18 17 15 14 12 11 12 12 12 11 10 9 8 7 6 6 6 5 4 4 3 3 2 1 1 2 3
13 14 15 15 15 15 16 16 16 14 12 8 9 13 16 16 16 18 19 19 19 17 13 12 20 14 11 12 12 7 8 7 6 5 4 5 4 3 2 2 1 2 2 2
14 15 17 17 16 15 16 15 15 13 9 7 8 10 12 13 16 19 19 17 14 13 15 16 14 11 11 12 13 7 8 7 7 5 4 4 3 3 2 2 2 2 3 3
14 16 18 18 18 17 16 15 13 12 8 5 9 12 13 14 17 18 17 12 9 13 17 20 13 10 9 11 12 7 7 7 6 6 5 4 4 3 2 2 2 3 3 3
13 14 16 17 17 17 16 13 11 10 6 3 4 8 12 14 15 13 11 11 14 19 14 11 10 13 15 14 7 7 7 7 6 5 5 4 4 3 3 3 3 3 3 3
12 13 15 15 15 15 15 12 10 8 4 2 5 9 12 13 13 14 11 9 13 20 14 10 15 20 19 11 7 7 7 7 6 5 5 4 4 4 3 3 3 3 3 4
12 13 13 13 13 12 12 11 9 7 4 1 2 6 9 10 7 5 8 19 21 19 11 14 20 20 17 8 7 7 6 6 5 5 5 4 4 3 3 3 3 3 4 5
12 12 12 12 11 10 9 9 7 6 4 3 4 5 5 5 7 10 11 14 20 18 10 16 21 19 11 7 7 7 6 6 6 5 5 4 4 3 3 3 3 3 4 4
10 10 10 9 8 7 7 5 4 3 1 2 3 3 4 5 9 10 10 12 15 15 10 8 10 11 8 7 7 7 6 6 5 5 5 4 4 3 3 3 4 3 4 5
10 9 8 8 6 5 5 4 3 2 1 2 3 3 5 6 8 9 11 10 10 10 8 7 7 7 7 7 6 6 6 5 5 5 4 4 3 3 3 3 3 4 4 5
Wind_Direction
236 238 213 229 223 186 194 199 203 232 232 251 244 233 230 219 207 197 202 202 203 206 209 211 215 219 221 228 222 204 202 217 231 235 235 238 241 242 245 247 250 251 261 273
270 261 229 250 251 220 219 218 223 244 257 249 246 229 223 212 197 202 209 210 209 209 207 209 213 215 216 223 217 197 208 226 233 230 233 237 240 240 243 250 256 254 256 262
255 290 358 272 237 219 215 208 196 224 242 238 213 216 217 210 200 205 209 208 207 206 205 208 209 206 209 214 200 196 215 229 229 226 234 238 238 237 241 246 249 256 259 256
218 324 249 248 240 215 226 241 218 228 238 219 216 222 221 202 196 206 207 205 206 203 203 205 200 196 195 184 185 200 217 231 231 227 237 242 236 242 246 243 244 251 258 256
157 222 270 290 271 203 208 263 232 227 239 229 201 138 268 214 198 203 201 196 197 192 187 182 183 178 162 167 175 189 214 230 233 223 231 236 241 248 246 244 250 249 254 255
151 194 245 254 258 185 148 278 260 217 226 189 140 178 240 208 189 198 191 181 174 163 155 161 170 153 150 161 165 193 217 230 231 213 218 232 244 252 249 243 256 263 263 256
181 215 257 256 265 134 179 252 282 222 207 175 186 207 208 163 173 175 170 165 154 148 154 165 156 146 149 155 177 202 194 177 158 192 212 231 254 263 270 271 278 279 280 280
161 187 250 258 140 180 230 278 291 261 209 197 213 198 155 166 168 161 154 149 147 145 146 147 148 146 148 164 180 153 132 117 95 68 58 73 50 338 333 318 310 307 307 308
193 215 238 224 220 250 266 277 278 271 251 209 203 198 186 178 171 165 159 154 148 144 137 134 149 150 152 166 151 132 116 105 89 72 57 50 57 34 20 15 355 331 328 321
259 271 272 270 264 271 267 261 273 269 256 213 204 197 185 177 172 166 160 157 149 144 142 143 144 144 148 145 136 125 117 106 91 81 62 49 50 51 51 29 14 360 350 334
275 285 308 307 304 309 307 298 294 289 252 222 209 198 187 183 180 174 164 158 156 155 152 150 145 139 141 141 132 121 115 107 94 84 80 64 57 54 54 44 51 40 2 346
261 278 287 293 306 317 310 303 299 294 285 253 214 207 192 188 182 172 165 158 155 152 149 149 145 141 142 142 136 129 122 115 107 98 85 78 77 61 47 55 52 53 48 43
267 292 284 285 300 307 300 296 295 282 267 259 237 210 194 187 176 167 164 163 164 160 154 150 146 144 146 142 134 131 131 129 117 109 101 92 85 88 65 25 31 38 37 38
308 316 302 302 301 307 304 300 297 286 272 253 237 208 189 176 167 171 175 171 160 152 151 151 147 148 150 141 132 128 128 130 126 118 113 106 100 93 88 75 39 5 9 24
324 313 290 295 302 306 307 307 304 295 285 268 231 202 188 183 183 181 168 154 149 149 152 152 150 153 152 142 135 134 131 130 126 122 116 111 106 98 88 79 66 24 3 8
316 315 314 317 316 314 313 308 299 290 283 266 237 215 201 191 177 161 158 158 158 162 162 158 157 157 152 143 136 135 139 142 137 129 121 115 111 107 99 87 68 40 17 354
323 326 327 323 318 313 307 299 290 283 279 265 243 217 183 162 157 161 165 166 162 159 158 158 156 154 151 147 141 140 137 144 141 131 131 133 131 131 133 127 115 29 323 326
302 301 299 298 301 304 304 302 296 289 279 269 240 189 176 173 174 171 163 152 144 144 153 154 151 150 149 147 142 140 138 138 140 142 142 143 146 151 154 161 192 257 294 320
322 320 317 314 311 305 301 301 299 293 284 260 212 195 190 184 173 162 156 155 157 161 166 162 158 151 149 157 149 140 140 140 140 143 146 150 146 155 167 186 221 256 275 291
324 325 323 320 319 316 310 307 306 300 288 250 210 191 180 172 163 160 161 165 168 162 157 158 153 150 152 160 152 143 145 147 149 151 153 158 165 175 187 208 233 257 273 279
321 323 323 323 321 320 316 313 310 304 294 243 203 191 179 167 162 160 159 158 152 146 154 157 153 153 153 158 153 144 147 150 154 160 164 169 175 184 201 225 247 259 268 275
316 318 319 320 322 321 319 318 316 311 302 257 201 172 160 159 159 158 156 155 155 154 152 151 152 159 162 155 146 148 151 154 157 161 168 175 181 193 212 229 244 258 264 269
311 312 314 316 319 318 318 323 327 323 309 250 182 170 165 162 160 157 151 147 152 157 151 154 162 163 159 151 148 152 155 159 164 170 176 181 188 197 212 232 244 256 267 274
309 310 311 313 318 323 326 330 336 335 332 348 148 154 151 146 137 125 130 152 157 152 151 161 165 164 157 149 151 153 158 164 167 171 176 180 188 199 215 231 249 263 270 280
303 306 308 314 320 320 319 327 340 351 360 35 75 106 128 140 143 141 142 151 156 150 150 165 165 162 153 149 155 159 164 171 172 171 174 178 188 201 218 234 249 264 273 279
295 299 299 298 299 303 309 318 329 335 358 74 75 82 99 111 125 135 140 144 149 151 151 152 155 152 149 154 157 161 164 168 168 166 171 176 186 199 221 244 265 270 278 282
288 290 293 297 299 303 308 308 306 301 252 155 124 114 123 130 134 136 138 141 144 147 146 145 144 147 151 153 155 156 157 158 159 162 168 174 185 205 230 254 267 278 285 290
Height
1490 1487 1487 1488 1488 1494 1497 1497 1503 1496 1492 1478 1471 1469 1468 1469 1471 1474 1476 1478 1481 1483 1486 1489 1492 1494 1496 1498 1500 1501 1501 1502 1502 1502 1501 1501 1500 1499 1498 1497 1496 1495 1494 1493
1488 1483 1485 1488 1484 1485 1487 1487 1488 1485 1481 1465 1463 1464 1465 1466 1468 1470 1472 1475 1477 1480 1483 1486 1488 1491 1493 1495 1497 1498 1499 1500 1500 1500 1500 1499 1499 1498 1497 1496 1495 1494 1493 1492
1496 1487 1486 1490 1478 1476 1476 1474 1475 1476 1465 1458 1460 1459 1458 1459 1462 1464 1467 1471 1474 1476 1479 1482 1485 1488 1490 1492 1494 1495 1496 1497 1498 1498 1498 1498 1497 1496 1495 1495 1494 1493 1492 1491
1496 1491 1497 1478 1462 1463 1465 1462 1460 1457 1452 1451 1451 1450 1452 1455 1457 1460 1463 1467 1470 1473 1476 1479 1482 1485 1487 1489 1491 1492 1494 1494 1495 1495 1495 1495 1494 1494 1493 1492 1491 1491 1490 1489
1498 1497 1490 1472 1459 1459 1462 1458 1448 1448 1445 1445 1447 1450 1450 1450 1453 1456 1460 1463 1467 1470 1473 1476 1479 1482 1484 1486 1488 1489 1490 1491 1492 1492 1492 1491 1491 1491 1490 1489 1488 1487 1487 1486
1496 1492 1491 1470 1452 1451 1456 1458 1439 1438 1438 1441 1445 1453 1446 1445 1449 1453 1456 1460 1463 1467 1470 1473 1476 1478 1481 1483 1485 1486 1487 1488 1488 1488 1488 1488 1487 1487 1486 1485 1484 1484 1483 1482
1492 1491 1480 1455 1449 1452 1464 1456 1436 1434 1434 1436 1438 1437 1437 1441 1446 1450 1453 1457 1460 1463 1467 1470 1473 1475 1478 1480 1482 1483 1484 1485 1485 1485 1485 1484 1483 1483 1482 1481 1480 1479 1478 1477
1488 1489 1478 1447 1449 1453 1449 1439 1436 1433 1431 1431 1430 1433 1436 1439 1443 1446 1450 1454 1457 1460 1463 1467 1470 1472 1475 1477 1479 1480 1481 1481 1481 1481 1481 1480 1479 1478 1477 1476 1475 1474 1473 1473
1468 1462 1447 1445 1445 1443 1442 1438 1435 1432 1430 1429 1430 1431 1433 1436 1440 1443 1447 1451 1454 1457 1460 1464 1466 1469 1471 1474 1475 1476 1477 1478 1478 1477 1477 1476 1475 1474 1473 1472 1471 1470 1469 1468
1461 1450 1443 1441 1440 1440 1438 1436 1433 1431 1429 1428 1427 1428 1431 1434 1437 1440 1444 1447 1450 1454 1457 1460 1463 1466 1468 1470 1472 1473 1474 1474 1474 1474 1473 1472 1471 1470 1469 1468 1467 1466 1465 1464
1457 1448 1441 1436 1437 1437 1434 1432 1429 1427 1426 1425 1425 1425 1427 1430 1433 1436 1439 1443 1447 1450 1453 1456 1459 1462 1465 1467 1468 1470 1470 1471 1471 1471 1470 1469 1469 1468 1467 1465 1465 1463 1462 1461
1453 1446 1445 1439 1435 1434 1432 1428 1426 1425 1423 1422 1422 1422 1423 1426 1429 1432 1435 1439 1442 1446 1450 1453 1456 1459 1461 1463 1465 1466 1467 1467 1468 1468 1467 1467 1467 1466 1465 1464 1463 1462 1461 1459
1446 1443 1440 1436 1433 1431 1428 1425 1423 1421 1419 1418 1418 1418 1419 1421 1424 1427 1431 1434 1437 1441 1445 1449 1452 1455 1457 1459 1461 1463 1464 1464 1465 1465 1465 1465 1465 1465 1464 1464 1463 1461 1460 1458
1441 1438 1434 1431 1429 1426 1424 1421 1418 1415 1414 1413 1412 1413 1414 1416 1419 1422 1425 1429 1433 1437 1441 1445 1448 1451 1453 1456 1458 1459 1460 1461 1462 1463 1463 1464 1464 1464 1463 1463 1462 1461 1459 1458
1436 1434 1432 1427 1423 1420 1417 1415 1412 1409 1407 1406 1406 1406 1408 1410 1412 1415 1420 1424 1428 1432 1436 1440 1443 1447 1449 1452 1454 1456 1457 1459 1460 1461 1461 1462 1462 1462 1462 1462 1461 1460 1459 1457
1432 1428 1425 1421 1418 1414 1411 1408 1405 1402 1400 1399 1399 1399 1400 1403 1406 1409 1413 1417 1422 1426 1430 1435 1439 1442 1445 1448 1450 1452 1454 1456 1458 1459 1460 1460 1461 1461 1461 1461 1460 1459 1458 1457
1430 1424 1420 1416 1412 1408 1405 1402 1399 1395 1393 1391 1390 1391 1393 1396 1399 1403 1407 1411 1417 1421 1426 1430 1434 1438 1441 1444 1447 1449 1451 1453 1455 1457 1458 1459 1459 1459 1460 1459 1459 1458 1457 1456
1428 1424 1420 1415 1409 1404 1398 1394 1390 1387 1384 1383 1382 1383 1384 1386 1389 1394 1399 1405 1411 1417 1422 1426 1430 1434 1437 1441 1444 1447 1449 1451 1453 1454 1456 1457 1457 1458 1458 1458 1457 1457 1456 1455
1421 1417 1413 1408 1403 1398 1392 1387 1382 1379 1376 1374 1374 1374 1375 1378 1383 1387 1392 1398 1404 1409 1415 1421 1426 1430 1434 1437 1441 1444 1446 1448 1450 1452 1453 1454 1455 1456 1456 1456 1456 1455 1454 1453
1416 1411 1406 1401 1396 1391 1385 1380 1375 1371 1368 1367 1366 1367 1369 1372 1377 1381 1387 1392 1397 1403 1410 1416 1421 1426 1430 1434 1438 1441 1443 1445 1447 1449 1451 1452 1453 1453 1454 1453 1453 1452 1451 1450
1411 1406 1400 1395 1389 1383 1379 1374 1370 1365 1362 1360 1360 1361 1363 1366 1371 1376 1381 1388 1395 1402 1408 1413 1418 1423 1427 1431 1435 1438 1440 1443 1445 1446 1448 1449 1450 1450 1451 1450 1450 1449 1448 1447
1407 1402 1396 1391 1384 1378 1373 1369 1365 1361 1358 1356 1356 1357 1359 1362 1367 1373 1379 1384 1391 1398 1404 1410 1415 1420 1425 1428 1432 1435 1437 1440 1442 1444 1445 1446 1447 1447 1447 1447 1446 1445 1444 1443
1403 1398 1393 1387 1381 1375 1370 1365 1361 1358 1355 1354 1354 1355 1356 1359 1363 1369 1375 1383 1390 1396 1401 1407 1413 1418 1422 1426 1429 1432 1435 1437 1439 1441 1442 1443 1444 1444 1444 1443 1442 1441 1439 1438
1399 1394 1389 1384 1378 1372 1367 1363 1360 1357 1355 1354 1354 1355 1357 1360 1364 1370 1375 1381 1388 1394 1400 1406 1411 1415 1419 1423 1426 1429 1432 1434 1436 1438 1439 1440 1440 1440 1439 1438 1437 1436 1434 1432
1395 1390 1385 1380 1375 1371 1366 1363 1359 1357 1356 1355 1355 1356 1359 1361 1364 1369 1375 1381 1387 1393 1399 1405 1409 1413 1417 1421 1424 1427 1429 1432 1433 1435 1435 1436 1436 1436 1435 1434 1432 1431 1429 1427
1389 1386 1382 1378 1374 1370 1366 1363 1360 1358 1357 1357 1357 1358 1361 1364 1367 1372 1376 1381 1387 1393 1398 1403 1407 1411 1415 1419 1422 1424 1427 1429 1430 1431 1432 1432 1431 1431 1430 1429 1427 1425 1423 1421
1383 1380 1377 1373 1370 1368 1365 1362 1361 1359 1359 1358 1359 1361 1363 1366 1370 1373 1378 1382 1387 1392 1397 1402 1406 1410 1413 1416 1419 1422 1424 1425 1426 1427 1427 1427 1427 1426 1425 1423 1422 1420 1417 1415